Weather observations for the past three days for
Cleveland / Cuyahoga
Imperial (Metric)
Date Time (edt) Wind (mph) Vis. (mi.) Weather Sky Cond. Temperature (ºF) Relative Humidity Wind Chill (°F) Heat Index (°F) Pressure Precipitation (in)
Air Dwpt 6 hour altimeter (in) sea level (mb) 1 hr 3 hr 6 hr
Max. Min.
24 09:45 W 15 10.00 Fair CLR 77 66.2 69% 79 30.09 0.0
24 08:45 SW 9 10.00 Fair CLR 75.2 68 78% 76 30.08 0.0
24 07:45 SW 9 10.00 Fair CLR 71.6 66.2 83% 30.07 0.0
24 06:45 SW 8 10.00 Fair CLR 69.8 66.2 88% 30.06 0.0
24 06:15 SW 8 10.00 Fair CLR 69.8 65.7 87% 30.07 0.0
24 05:55 S 9 10.00 Fair CLR 70.3 66 86% 30.06 0.0
24 05:35 SW 10 10.00 Fair CLR 70.5 66 86% 30.06 0.0
24 05:15 SW 9 10.00 Fair CLR 70.3 66 86% 30.05 0.0
24 04:55 SW 8 10.00 Fair CLR 70.9 65.8 84% 30.06 0.0
24 04:35 SW 7 10.00 Fair CLR 70.7 65.8 85% 30.06 0.0
24 04:15 SW 7 10.00 Fair CLR 70.7 66 85% 30.06 0.0
24 03:55 SW 9 10.00 Fair CLR 70.9 66.9 87% 30.06 0.0
24 03:35 S 7 10.00 Fair CLR 70.5 67.5 90% 30.07 0.0
24 03:15 S 8 10.00 Fair CLR 70.3 67.5 91% 30.06 0.0
24 02:55 S 8 10.00 Fair CLR 70.5 67.5 90% 30.07 0.0
24 02:35 S 6 10.00 Fair CLR 70.2 67.6 92% 30.07 0.0
24 02:15 S 6 10.00 Fair CLR 70.9 67.6 90% 30.06 0.0
24 01:55 S 7 10.00 Fair CLR 71.1 67.8 75 69.4 90% 30.07 0.0
24 01:35 S 6 10.00 Fair CLR 70 67.8 93% 30.07 0.0
24 01:15 S 7 10.00 Fair CLR 70.7 67.8 91% 30.08 0.0
24 00:55 S 7 10.00 Fair CLR 69.6 67.5 93% 30.08 0.0
24 00:35 S 7 10.00 Fair CLR 70 67.1 91% 30.08 0.0
24 00:15 S 7 10.00 Fair CLR 70.2 66.6 88% 30.09 0.0
23 23:55 S 8 10.00 Fair CLR 70.5 65.8 85% 30.09 0.0
23 23:35 S 8 10.00 Fair CLR 70.5 65.7 85% 30.09 0.0
23 23:15 SE 7 10.00 Fair CLR 70.5 65.8 85% 30.09 0.0
23 22:45 S 6 10.00 Fair CLR 69.8 68 94% 30.07 0.0
23 21:45 S 5 10.00 Fair CLR 69.8 69.8 100% 30.06 0.0
23 20:45 S 7 10.00 Fair CLR 71.6 69.8 94% 30.04 0.0
23 19:45 Calm 10.00 Fair CLR 75.2 71.6 89% 75 30.04 0.0
23 18:45 SE 5 10.00 Partly Cloudy SCT055 73.4 71.6 94% 30.04 0.0
23 17:45 SE 6 10.00 Mostly Cloudy SCT055 BKN070 71.6 71.6 100% 30.05 0.0
23 16:45 E 6 7.00 Light Rain SCT036 BKN044 OVC070 66.2 66.2 100% 30.06 0.0
23 15:45 N 8 7.00 Thunderstorm Light Rain SCT041 BKN060 OVC075 78.8 62.6 58% 80 30.03 0.0
23 14:45 NE 7 10.00 Partly Cloudy SCT060 SCT120 80.6 64.4 58% 82 30.04 0.0
23 13:45 NE 7 10.00 Partly Cloudy SCT060 SCT090 82.4 66.2 58% 85 30.06 0.0
23 12:45 N 8 10.00 Partly Cloudy SCT041 SCT050 SCT090 80.6 64.4 58% 82 30.07 0.0
23 11:45 S 7 10.00 Partly Cloudy SCT041 SCT050 80.6 62.6 54% 82 30.07 0.0
23 09:45 SW 7 10.00 Fair CLR 75.2 68 78% 76 30.07 0.0
23 08:45 S 5 10.00 Fair CLR 71.6 69.8 94% 30.07 0.0
23 07:45 Calm 10.00 Fair CLR 68 66.2 94% 30.06 0.0
23 06:45 Calm 10.00 Fair CLR 64.4 64.4 100% 30.04 0.0
23 06:15 Calm 10.00 Fair CLR 64.4 64.4 100% 30.05 0.0
23 05:55 Calm 10.00 Fair CLR 65.1 64.8 99% 30.05 0.0
23 05:35 Calm 10.00 Partly Cloudy SCT042 SCT060 65.8 64.8 96% 30.05 0.0
23 05:15 Calm 10.00 Mostly Cloudy SCT028 BKN044 BKN060 66.2 65.3 97% 30.05 0.0
23 04:55 Calm 10.00 Overcast SCT028 BKN046 OVC070 66.6 65.5 96% 30.05 0.0 0.01
23 04:35 Calm 10.00 Overcast SCT048 BKN050 OVC070 66.6 65.7 97% 30.05 0.0
23 04:15 Calm 10.00 Overcast BKN050 OVC070 66.2 65.7 98% 30.05 0.0
23 03:55 SE 5 10.00 Overcast BKN050 OVC070 66.6 65.3 96% 30.05 0.0
23 03:35 SE 3 10.00 Overcast SCT050 OVC070 66.4 65.5 97% 30.05 0.0
23 03:15 Calm 10.00 Overcast OVC055 66.4 65.1 96% 30.05 0.0
23 02:55 SE 5 10.00 Light Rain OVC049 66.4 65.3 96% 30.06 0.0 0.01
23 02:35 SE 6 7.00 Light Rain BKN011 BKN017 OVC049 66.9 64.2 91% 30.06 0.0 0.01
23 02:15 S 5 7.00 Light Rain Fog/Mist SCT013 BKN017 OVC060 70.7 70.3 99% 30.05 0.0
23 01:55 S 5 10.00 Overcast OVC060 70.7 68.9 73.8 68.9 94% 30.05 0.0
23 01:35 Calm 10.00 Overcast OVC060 70.9 68.9 94% 30.04 0.0
23 01:15 Calm 10.00 Overcast SCT012 BKN022 OVC060 71.1 68.9 93% 30.04 0.0
23 00:55 Calm 10.00 Overcast SCT014 BKN022 OVC060 70.3 68.4 93% 30.04 0.0
23 00:35 Calm 10.00 Overcast SCT014 BKN025 OVC060 71.1 68.4 91% 30.05 0.0
23 00:15 Calm 10.00 Overcast BKN012 BKN025 OVC085 70.2 68.2 93% 30.04 0.0
22 23:55 Calm 10.00 Overcast SCT012 BKN070 OVC080 69.4 68.2 96% 30.04 0.0
22 23:35 Calm 10.00 Overcast OVC090 69.6 67.6 93% 30.04 0.0
22 23:15 Calm 10.00 Overcast OVC090 70 68.2 94% 30.04 0.0
22 22:45 Calm 10.00 Overcast BKN080 OVC100 71.6 69.8 94% 30.02 0.0
22 21:45 Calm 10.00 Overcast SCT055 OVC090 71.6 68 88% 30.02 0.0
22 20:45 N 3 10.00 Overcast SCT025 OVC090 73.4 69.8 89% 29.99 0.0
22 19:45 NW 5 10.00 Overcast SCT025 OVC075 73.4 64.4 74% 29.99 0.0
22 18:45 NW 5 8.00 Overcast BKN080 OVC110 75.2 64.4 69% 77 29.99 0.0
22 17:45 N 6 10.00 Overcast SCT050 OVC090 75.2 66.2 74% 77 29.99 0.0
22 16:45 N 10 10.00 Overcast SCT060 OVC090 77 64.4 65% 79 30 0.0
22 15:45 N 7 10.00 Overcast SCT055 OVC090 78.8 64.4 61% 81 30 0.0
22 14:45 NE 7 10.00 Mostly Cloudy FEW040 BKN100 78.8 64.4 61% 81 30.01 0.0
22 13:45 N 8 10.00 Partly Cloudy SCT100 SCT120 78.8 62.6 58% 80 30.02 0.0
22 12:45 N 9 10.00 Partly Cloudy SCT120 78.8 60.8 54% 80 30.03 0.0
22 11:45 NE 7 10.00 Mostly Cloudy SCT120 BKN160 80.6 59 48% 81 30.04 0.0
22 10:45 E 3 10.00 Partly Cloudy SCT150 78.8 60.8 54% 80 30.04 0.0
22 09:45 E 3 10.00 Mostly Cloudy BKN150 BKN250 75.2 60.8 61% 77 30.04 0.0
22 08:45 E 3 10.00 Overcast BKN150 OVC250 71.6 60.8 69% 30.04 0.0
22 07:45 E 3 10.00 Fair CLR 66.2 60.8 83% 30.04 0.0
22 06:45 E 3 10.00 Fair CLR 64.4 60.8 88% 30.04 0.0
22 06:15 Calm 10.00 Fair CLR 62.6 59.9 91% 30.06 0.0
22 05:55 Calm 10.00 Fair CLR 63.1 60.3 90% 30.06 0.0
22 05:35 Calm 10.00 Fair CLR 62.4 60.4 93% 30.06 0.0
22 05:15 Calm 10.00 Fair CLR 63.7 60.4 89% 30.05 0.0
22 04:55 Calm 10.00 Fair CLR 62.6 60.8 94% 30.05 0.0
22 04:35 Calm 10.00 Fair CLR 62.8 60.6 93% 30.06 0.0
22 04:15 Calm 10.00 Fair CLR 62.6 60.3 92% 30.07 0.0
22 03:55 Calm 10.00 Fair CLR 61.7 60.1 94% 30.07 0.0
22 03:35 Calm 10.00 Fair CLR 61.3 59.7 94% 30.08 0.0
22 03:15 Calm 10.00 Fair CLR 61.7 59.7 93% 30.08 0.0
22 02:55 Calm 5.00 Fog/Mist CLR 60.3 59.9 99% 30.08 0.0
22 02:35 Calm 10.00 Fair CLR 59.7 58.8 97% 30.09 0.0
22 02:15 Calm 10.00 Fair CLR 61 60.4 98% 30.1 0.0
22 01:55 Calm 10.00 Fair CLR 60.3 59.4 75.6 60.1 97% 30.1 0.0
22 01:35 Calm 10.00 Fair CLR 61.3 59.2 93% 30.11 0.0
22 01:15 Calm 10.00 Fair CLR 61.2 60.3 97% 30.11 0.0
22 00:55 Calm 10.00 Fair CLR 61.3 59.9 95% 30.11 0.0
22 00:35 Calm 10.00 Fair CLR 61.3 60.1 96% 30.11 0.0
22 00:15 Calm 10.00 Fair CLR 61.2 60.1 96% 30.11 0.0
21 23:55 Calm 10.00 Fair CLR 62.1 60.4 94% 30.1 0.0
21 23:35 Calm 10.00 Fair CLR 62.2 61 96% 30.11 0.0
21 23:15 Calm 10.00 Fair CLR 62.1 59.5 92% 30.11 0.0
21 22:45 Calm 10.00 Fair CLR 64.4 60.8 88% 30.11 0.0
21 21:45 Calm 10.00 Fair CLR 64.4 59 83% 30.11 0.0
21 20:45 Calm 10.00 Fair CLR 69.8 60.8 73% 30.09 0.0
21 19:45 N 7 10.00 Fair CLR 77 60.8 57% 79 30.09 0.0
21 18:45 NE 6 10.00 Fair CLR 78.8 59 51% 80 30.09 0.0
21 17:45 N 7 10.00 Fair CLR 80.6 57.2 45% 81 30.1 0.0
21 16:45 NW 7 10.00 Fair CLR 80.6 59 48% 81 30.11 0.0
21 15:45 N 9 10.00 A Few Clouds FEW045 78.8 59 51% 80 30.11 0.0
21 14:45 NW 9 10.00 A Few Clouds FEW040 80.6 60.8 51% 81 30.11 0.0
21 13:45 N 5 10.00 A Few Clouds FEW040 80.6 59 48% 81 30.11 0.0
21 12:45 NW 6 10.00 A Few Clouds FEW045 78.8 57.2 48% 80 30.11 0.0
21 11:45 NW 8 10.00 Partly Cloudy SCT045 77 57.2 51% 79 30.12 0.0
21 10:45 W 7 10.00 Partly Cloudy SCT039 77 57.2 51% 79 30.12 0.0
Date Time (edt) Wind (mph) Vis. (mi.) Weather Sky Cond. Air Dwpt Max. Min. Relative Humidity Wind Chill (°F) Heat Index (°F) altimeter (in) sea level (mb) 1 hr 3 hr 6 hr
6 hour
Temperature (ºF) Pressure Precipitation (in)